Overview Statistics Trail Chart Weather Telemetry Raw packets
 

This is the latest recevied weather packets stored in our database for station/object NO9B. If no packets are shown the sender has not sent any weather packets the latest 10 day(s).

<< 17 18 19 20 21 22 23 >>
Time Temp. Humidity Pressure Rain* Wind** Luminosity Snow
1788539790 21.67° C 96% 1015.2 hPa 0 mm - 36 W/m² -
1788539486 21.67° C 97% 1015.6 hPa 0 mm - 25 W/m² -
1788539186 21.67° C 97% 1015.6 hPa 0.51 mm - 20 W/m² -
1788538886 21.67° C 97% 1015.6 hPa 0.51 mm - 18 W/m² -
1788538582 21.67° C 97% 1015.6 hPa 0.51 mm - 15 W/m² -
1788538276 21.67° C 97% 1015.4 hPa 0.51 mm - 8 W/m² -
1788537972 21.67° C 97% 1015.5 hPa 0.51 mm - 8 W/m² -
1788537668 21.67° C 97% 1015.8 hPa 0.51 mm - 8 W/m² -
1788537362 21.67° C 97% 1016.1 hPa 0.51 mm - 8 W/m² -
1788537056 21.67° C 97% 1016.3 hPa 4.32 mm - 10 W/m² -
1788536750 21.67° C 97% 1016.5 hPa 11.94 mm - 7 W/m² -
1788536445 21.67° C 96% 1016.7 hPa 16.76 mm - 6 W/m² -
1788536144 21.67° C 96% 1016.7 hPa 21.59 mm - 8 W/m² -
1788535841 21.67° C 95% 1017 hPa 33.02 mm - 9 W/m² -
1788535536 22.22° C 95% 1018.6 hPa 10.16 mm - 6 W/m² -
1788535232 22.22° C 95% 1018.4 hPa 0 mm - 4 W/m² -
1788534927 22.22° C 94% 1017.8 hPa 0 mm - 21 W/m² -
1788534626 22.22° C 95% 1017.1 hPa 0 mm - 66 W/m² -
1788534326 21.67° C 95% 1017.1 hPa 0 mm - 94 W/m² -
1788534021 21.67° C 95% 1017 hPa 0 mm - 90 W/m² -
1788533715 21.67° C 95% 1017.1 hPa 0 mm - 83 W/m² -
1788533411 21.67° C 95% 1016.9 hPa 0 mm - 66 W/m² -
1788533107 21.67° C 95% 1016.9 hPa 0 mm - 55 W/m² -
1788532803 21.67° C 95% 1017.4 hPa 0 mm - 62 W/m² -
1788532498 21.67° C 95% 1017.5 hPa 0 mm - 45 W/m² -

* Rain latest hour (hover to see other rain measurements)
** Current wind speed in m/s (hover to see current wind gust speed)